Weather Roundup
Issued by NWS

Home | Current Version | Previous Version | Text Only | Print | Product List | Glossary On
Versions: 1 2 3 4 5 6 7 8 9 10 11 12 13 14 15 16 17 18 19 20 21 22 23 24 25 26 27 28 29 30 31 32 33 34 35 36 37 38 39 40 41 42 43 44 45 46 47 48 49 50
000
NZUS93 KARX 230810
HRRWXR

CURRENT HOURLY OBSERVATIONS ACROSS
MUCH OF THE UPPER MISSISSIPPI VALLEY
NATIONAL WEATHER SERVICE LA CROSSE WI
300 AM CDT WED JUL 23 2014


...SOUTHEAST MINNESOTA...


CITY           SKY/WX    TMP DP  RH WIND       PRES   REMARKS
ROCHESTER      CLEAR     62  56  80 N6        30.20R
ROCHESTER/MAYO FAIR      65  56  72 CALM      30.19R
WINONA         PTCLDY    70  63  78 CALM      30.17R
AUSTIN         CLEAR     63  55  77 CALM      30.18R
ALBERT LEA     CLEAR     63  55  77 N5        30.19S
DODGE CENTER   CLEAR     61  55  82 N5        30.19R
PRESTON        CLEAR     62  62  98 N7        30.18R
OWATONNA       CLEAR     61  55  82 CALM      30.19F
FARIBAULT      CLEAR     64  55  72 CALM      30.19S
$$

...ELSEWHERE IN MINNESOTA...


CITY           SKY/WX    TMP DP  RH WIND       PRES   REMARKS
MINNEAPOLIS    CLEAR     67  56  67 N7        30.18S
INTNL FALLS    CLEAR     59  54  83 NE5       30.23R
DULUTH         PTCLDY    60  52  74 N8        30.19S
RED WING       CLEAR     64  57  77 CALM      30.17R
REDWOOD FALLS  CLEAR     63  57  81 N6        30.22S
MANKATO        CLEAR     63  54  72 NW6       30.20S
WORTHINGTON    CLEAR     57  54  88 N8        30.25S
FAIRMONT       CLEAR     61  54  77 NW6       30.21R
$$

...SOUTHWEST WISCONSIN...


CITY           SKY/WX    TMP DP  RH WIND       PRES   REMARKS
LA CROSSE      CLEAR     68  58  70 NE7       30.14S
PRAIRIE DU CHI CLEAR     69  58  67 N5        30.13R
BOSCOBEL       CLEAR     66  60  81 CALM      30.13S
LONE ROCK      CLEAR     69  59  70 NE6       30.13S
PLATTEVILLE    CLEAR     65  61  87 N8        30.12S
FORT MC COY    CLEAR     58  56  92 CALM      30.16S
CAMP DOUGLAS   CLEAR     55  55 100 N2        30.16R
VIROQUA        FAIR      62  58  88 NE5       30.17R
WIS DELLS      CLEAR     63  57  81 NE3       30.14S
$$

...ELSEWHERE IN WISCONSIN...


CITY           SKY/WX    TMP DP  RH WIND       PRES   REMARKS
MILWAUKEE      PTCLDY    60  56  86 N10       30.09S
MADISON        CLEAR     64  58  80 N8        30.13R
GREEN BAY      CLEAR     59  56  89 N6        30.13R
EAU CLAIRE     CLEAR     60  59  96 N3        30.16S
BLACK RVR FLS  FAIR      55  54  99 CALM      30.16S
MEDFORD          N/A     53  53  98 CALM      30.17S FOG
WAUSAU         CLEAR     59  56  89 N3        30.16R
WIS RAPIDS     CLEAR     62  58  86 NE6       30.17R
MARSHFIELD     CLEAR     60  57  89 N3        30.17R
RICE LAKE      CLEAR     57  56  95 CALM      30.20R
$$

...NORTHEAST IOWA...


CITY           SKY/WX    TMP DP  RH WIND       PRES   REMARKS
WATERLOO       CLEAR     63  61  93 NW5       30.14R
DUBUQUE        CLEAR     69  63  81 NE10      30.11S
DECORAH        CLEAR     66  63  88 VRB5      30.15R
MASON CITY     CLEAR     61  57  87 N7        30.19S
CHARLES CITY   CLEAR     63  59  88 N6        30.17R
OELWEIN        CLEAR     64  63  94 N6        30.15S
$$

...ELSEWHERE IN IOWA...


CITY           SKY/WX    TMP DP  RH WIND       PRES   REMARKS
DES MOINES     CLEAR     72  60  66 N12       30.14S
IOWA CITY      CLEAR     73  65  75 N9        30.12R
FORT DODGE     CLEAR     63  57  82 N3        30.20S
MARSHALLTOWN   CLEAR     64  61  90 N7        30.15R
CEDAR RAPIDS   CLEAR     69  63  81 N7        30.11R
$$

...NORTHERN ILLINOIS...


CITY           SKY/WX    TMP DP  RH WIND       PRES   REMARKS
CHICAGO-OHARE  MOCLDY    67  55  65 N20G29    30.07R
DUPAGE         CLOUDY    67  60  78 NE20G26   30.08R
CHICAGO-MIDWAY CLOUDY    69  61  75 N21G29    30.05R
MOLINE         CLEAR     75  66  73 N5        30.06S
ROCKFORD       PTCLDY    70  62  76 E16       30.09R
STERLING       CLEAR     72  64  78 NE8       30.07R
PEORIA         PTCLDY    80  72  76 N12G18    30.01S
$$

NOTE: "FAIR" INDICATES FEW OR NO CLOUDS BELOW 12,000 FEET WITH NO
SIGNIFICANT WEATHER AND/OR OBSTRUCTIONS TO VISIBILITY. WIND
SPEEDS ARE IN MILES-PER-HOUR.



USA.gov is the U.S. government's official web portal to all federal, state and local government web resources and services.